Location: Betsche
(47.2271°N, 9.5481°E)
Time: 13:59:25
(UTC+00:00)

Daily predictions for brighter satellites

Satellite Brightness Start Highest point End
(mag) Time Altitude Azimuth Time Altitude Azimuth Time Altitude Azimuth
MOS 1-B Rocket 4.5 19:04:36 10° NNE 19:12:19 65° E 19:18:48 10° S
Meteor 2-15 Rocket 4.5 19:13:10 10° S 19:19:13 84° E 19:25:21 10° N
SJ-6B 3.1 19:16:00 10° S 19:19:50 69° WSW 19:23:48 10° NNW
SL-08 ROCKET BODY 4.4 19:18:58 10° N 19:24:55 76° E 19:30:45 10° SSE
Terra 4.0 19:25:53 10° ENE 19:27:18 11° NE 19:28:43 10° NE
USA 290 3.4 19:24:29 10° N 19:27:23 29° ENE 19:30:10 11° ESE
Cosmos 1842 Rocket 4.2 19:24:55 10° SSW 19:29:21 61° WNW 19:33:49 10° N
Ariane Rocket 3.0 19:24:29 10° SSE 19:29:33 90° S 19:34:39 10° NNW
CREW DRAGON DEMO-1 DEB 4.3 19:27:22 10° WNW 19:29:46 30° N 19:32:12 10° ENE
Cosmos 2263 Rocket 4.0 19:27:25 10° WSW 19:32:34 37° NW 19:37:45 10° NNE
FALCON 9 DEB 3.8 19:30:04 10° WNW 19:32:56 37° SW 19:35:41 11° SSE
Cosmos 1606 2.6 19:31:26 10° S 19:35:11 86° ESE 19:39:00 10° N
Cosmos 1844 Rocket 2.7 19:31:45 10° SSW 19:37:13 63° ESE 19:42:45 10° NNE
SPOT 1/Viking Rocket 4.2 19:36:09 10° SE 19:40:53 39° ENE 19:45:42 10° N
SL-4 R/B 2.8 19:37:19 10° WNW 19:41:32 48° SW 19:45:35 12° SE
MetOp-B 4.5 19:36:59 10° SE 19:42:08 51° ENE 19:47:19 10° N
USA 308 4.5 19:38:27 10° WNW 19:42:21 33° N 19:46:17 10° ENE
Cosmos 1805 Rocket 3.5 19:38:21 10° N 19:42:42 76° E 19:47:03 10° SSE
Cosmos 1386 Rocket 4.4 19:38:26 10° N 19:44:28 72° E 19:50:32 10° SSE
X-37B 0.7 19:42:03 10° W 19:45:12 58° S 19:47:53 13° ESE
ARIANE 5 R/B 3.8 19:43:07 12° ESE 19:46:19 27° ENE 19:49:58 10° N
Cosmos 1633 Rocket 3.8 19:47:03 10° N 19:51:08 36° ENE 19:54:17 15° SE
Cosmos 1745 Rocket 4.0 19:45:27 10° N 19:51:42 83° E 19:57:52 10° S
SPOT 3 Rocket 3.5 19:49:11 10° SSE 19:54:20 80° ENE 19:59:31 10° NNW
Cosmos 1437 4.4 19:54:17 14° E 19:54:27 14° E 19:56:01 10° ENE
Cosmos 1709 Rocket 4.2 19:48:31 10° N 19:54:31 53° ENE 19:59:46 13° SSE
Resurs 1-3 4.3 19:52:19 10° S 19:56:36 53° W 20:00:55 10° NNW
Landsat 7 3.8 19:52:36 11° SSE 19:57:07 73° ENE 20:01:53 10° N
Cosmos 1844 3.7 19:51:43 10° SSW 19:57:26 73° ESE 20:03:06 10° NNE
Cosmos 968 Rocket 3.7 19:52:58 10° SSW 19:58:13 77° WNW 20:03:29 10° NNE
BREEZE-M DEB (TANK) 4.1 19:54:50 10° W 19:59:05 65° SSW 20:06:54 12° ESE
ATLAS 5 CENTAUR R/B 2.4 19:54:58 10° NW 20:00:28 73° NE 20:05:41 16° SE
NOSS 3-3 (A) 4.4 19:57:11 10° S 20:02:16 35° ESE 20:07:58 10° NE
NOSS 3-3 (C) 4.4 19:57:18 10° S 20:02:24 35° ESE 20:08:05 10° NE
Cosmos 1328 Rocket 4.4 19:59:49 16° SSE 20:02:46 33° E 20:06:45 10° NNE
ATLAS 2AS CENTAUR R/B 4.4 19:58:32 10° NW 20:04:55 28° NNE 20:10:56 10° ENE
BREEZE M DEB (TANK) 4.3 20:00:57 10° W 20:04:59 83° NNW 20:19:26 10° ENE
Cosmos 1486 Rocket 4.2 20:00:24 10° SSW 20:05:44 82° WNW 20:11:07 10° NNE
IGS 5A 3.6 20:04:26 12° S 20:08:19 77° WSW 20:12:29 10° NNW
Meteor 1-26 Rocket 4.4 20:02:54 10° S 20:08:28 55° E 20:13:53 10° NNE
CARTOSAT-1 4.2 20:07:01 19° SE 20:09:41 40° ENE 20:13:44 10° N
Cosmos 1833 Rocket 3.7 20:04:53 10° NNW 20:10:04 35° NE 20:14:00 16° ESE
Cosmos 2315 Rocket 4.2 20:04:57 10° SSE 20:11:09 57° E 20:17:22 10° NNE
CRYOSAT 2 4.5 20:07:54 15° SSE 20:11:48 61° E 20:16:38 10° N
S3M 4.2 20:05:30 10° S 20:11:54 81° W 20:18:17 10° N
BREEZE-M R/B 1.5 20:10:45 10° WSW 20:13:17 67° SSE 20:15:12 15° ENE
Cosmos 1666 4.3 20:13:22 10° NNE 20:16:09 20° ENE 20:17:21 17° E
Cosmos 1666 Rocket 3.5 20:12:23 10° N 20:16:50 80° E 20:19:58 19° SSE
Meteor 2-17 Rocket 4.4 20:13:40 10° N 20:19:53 85° E 20:25:05 15° S
Cosmos 1933 3.6 20:18:16 10° SSW 20:22:18 70° W 20:26:21 10° N
USA 245 1.8 20:23:41 53° SE 20:24:05 74° ENE 20:26:20 10° N
USA 305 4.1 20:20:44 10° NW 20:24:45 39° NNE 20:28:38 11° E
Cosmos 783 Rocket 4.5 20:20:52 10° NNW 20:26:09 79° ENE 20:29:27 23° SSE
Cosmos 1242 Rocket 2.8 20:24:17 10° SSW 20:27:52 69° WNW 20:31:26 10° N
BREEZE M DEB (TANK) 2.1 20:28:18 10° WNW 20:33:01 64° N 20:34:07 28° E
Cosmos 773 Rocket 4.0 20:28:39 10° NNW 20:33:58 74° ENE 20:37:01 26° SSE
Resurs 01 Rocket 2.9 20:29:53 10° SSW 20:34:02 38° W 20:38:11 10° NNW
Spot 2 Rocket 3.4 20:34:12 23° SSE 20:37:29 88° ENE 20:42:33 10° NNW
SJ 16-02 2.5 20:38:19 24° ESE 20:38:37 24° E 20:42:11 10° NE
OE (NEXTSAT) 4.2 20:35:22 10° W 20:38:49 70° S 20:39:58 38° ESE
Sich 1 4.4 20:35:01 10° NNW 20:39:00 36° W 20:42:58 10° SSW
COSMOS 2406 3.5 20:35:03 10° NNW 20:40:38 56° ENE 20:43:43 26° SE
Cosmos 2228 Rocket 4.5 20:40:06 21° E 20:40:41 21° E 20:44:02 10° NE
Cosmos 2082 Rocket 3.3 20:38:12 10° NNW 20:43:17 34° NE 20:46:29 19° ESE
Meteor 2-6 Rocket 4.4 20:41:14 26° SSE 20:43:56 48° E 20:49:12 10° NNE
USA 306 3.9 20:39:53 10° NW 20:43:59 44° NNE 20:47:01 17° E
Cosmos 1500 3.0 20:42:02 10° N 20:45:49 83° E 20:47:10 38° SSE
CZ-4C R/B 3.1 20:38:46 10° NW 20:45:54 74° NE 20:51:18 24° SE
Cosmos 1782 3.1 20:43:16 16° SSW 20:46:23 68° W 20:50:22 10° N
ERS-1 Rocket 2.9 20:50:52 30° SSE 20:53:24 82° ENE 20:58:28 10° NNW
SPOT 5 2.9 20:52:52 31° SSE 20:55:23 84° ENE 21:00:39 10° NNW
H-2A R/B 3.8 20:53:01 10° NNE 20:57:03 44° E 20:57:49 40° SE
Meteor 1-11 Rocket 4.3 20:54:23 10° N 21:00:11 48° ENE 21:02:44 30° SE
Cosmos 1271 Rocket 3.3 21:00:22 39° ESE 21:00:41 39° E 21:04:28 10° NNE
Cosmos 1151 Rocket 3.9 20:58:03 12° SSW 21:01:52 49° WNW 21:06:09 10° N
Cosmos 1777 Rocket 3.9 20:58:39 21° SSW 21:02:07 75° ESE 21:07:20 10° NNE
Terra 1.8 21:02:22 37° SSE 21:04:12 73° ENE 21:08:58 10° N
CREW DRAGON DEMO-1 DEB 3.5 21:01:58 10° WNW 21:04:30 40° NNE 21:04:38 39° NNE
Cosmos 2278 Rocket 2.2 21:05:44 28° S 21:08:42 60° ESE 21:14:16 10° NNE
USA 307 3.5 21:05:11 10° NW 21:09:23 53° NNE 21:11:25 27° E
Cosmos 1340 Rocket 4.3 21:10:15 10° NNE 21:13:35 23° ENE 21:14:05 23° E
CZ-4B DEB 4.1 21:16:05 85° SW 21:16:09 86° W 21:19:23 10° NNW
Cosmos 1515 Rocket 3.7 21:17:35 32° SSW 21:19:33 70° W 21:23:57 10° N
Cosmos 1544 4.4 21:17:56 10° NNE 21:20:56 27° ENE 21:20:56 27° ENE
X-37B 2.5 21:18:41 10° W 21:20:09 21° WSW 21:20:09 21° WSW
Cosmos 2084 3.4 21:17:53 12° SW 21:21:41 79° NW 21:25:58 10° NE
ARIANE 5 R/B 3.8 21:20:40 23° SW 21:22:40 34° W 21:26:37 10° NNW
USA 308 3.3 21:18:40 10° NW 21:22:55 60° NNE 21:24:24 37° E
Cosmos 1869 Rocket 3.7 21:19:01 10° N 21:23:16 53° ENE 21:23:54 48° ESE
Cosmos 1536 3.3 21:19:34 10° N 21:23:29 44° ENE 21:23:48 43° E
Meteor 1-10 Rocket 4.1 21:22:59 35° S 21:25:27 82° E 21:31:07 10° NNE
Cosmos 1943 Rocket 3.9 21:30:26 17° E 21:30:26 17° E 21:33:26 10° ENE
Cosmos 2154 Rocket 4.0 21:24:15 10° N 21:30:37 73° E 21:33:03 40° SSE
Cosmos 1812 3.7 21:31:31 29° SW 21:32:59 43° WNW 21:36:42 10° N
Cosmos 2184 Rocket 4.1 21:32:23 10° NNW 21:38:37 71° W 21:41:19 35° S
ALOS 2 4.3 21:38:41 20° E 21:39:34 21° ENE 21:42:52 10° NNE
Cosmos 990 Rocket 4.5 21:40:01 40° ESE 21:40:13 40° ESE 21:45:07 10° NE
Cosmos 1707 Rocket 4.3 21:42:55 38° E 21:42:55 38° E 21:46:48 10° NNE
NOSS 3-4 (A) 3.8 21:36:39 10° NW 21:43:38 86° NE 21:47:03 37° SE
NOSS 3-4 (C) 3.8 21:36:45 10° NW 21:43:44 85° NE 21:47:09 37° SE
ATLAS 5 CENTAUR R/B 3.8 21:40:09 10° WNW 21:44:55 26° WSW 21:47:13 21° SSW
Cosmos 2074 Rocket 4.3 21:40:21 10° NNW 21:46:32 60° W 21:49:23 32° SSW
Cosmos 1666 3.9 21:48:26 10° NNW 21:51:47 32° W 21:52:11 31° WSW
Cosmos 2112 Rocket 4.4 21:47:14 10° NNW 21:52:31 56° ENE 21:53:50 44° ESE
Cosmos 1833 Rocket 3.4 21:48:47 10° NW 21:54:06 44° WSW 21:55:42 35° SSW
Nadezhda 1 Rocket 4.0 21:51:52 38° SSW 21:54:29 86° W 22:00:47 10° N
Cosmos 1238 Rocket 4.3 21:50:08 10° N 21:56:20 49° ENE 21:57:51 40° ESE
Cosmos 1743 3.1 21:53:24 10° N 21:56:52 53° NE 21:56:52 53° NE
ATLAS 2AS CENTAUR R/B 3.0 21:49:51 10° NW 21:57:17 68° NE 22:00:31 34° ESE
USA 215 3.8 21:55:02 13° E 22:00:48 55° NNE 22:07:09 10° NW
BREEZE-M DEB (TANK) 4.2 21:56:29 10° W 22:02:56 40° NNW 22:04:40 19° NE
Cosmos 2297 4.1 22:03:58 43° ESE 22:04:09 44° ESE 22:09:32 10° NE
USA 305 2.9 22:00:43 10° WNW 22:04:41 72° WSW 22:04:41 72° WSW
Cosmos 2181 Rocket 4.3 22:07:22 43° ESE 22:08:35 48° E 22:14:26 10° NNE
Cosmos 158 Rocket 4.3 22:10:18 10° NNW 22:14:57 45° WSW 22:15:27 44° SW
Cosmos 1733 Rocket 3.1 22:11:50 10° N 22:16:02 63° ENE 22:16:02 63° ENE
SJ 16-02 2.6 22:15:14 27° WSW 22:16:59 38° WNW 22:21:10 10° N
Cosmos 2228 Rocket 4.1 22:17:34 34° WSW 22:18:36 40° WNW 22:22:49 10° N
Cosmos 1680 Rocket 3.4 22:15:23 10° NNW 22:20:44 77° WSW 22:21:27 65° S
Meteor 1-27 Rocket 4.2 22:18:37 36° SW 22:20:50 60° WNW 22:26:42 10° N
Cosmos 2341 Rocket 4.0 22:14:59 10° N 22:21:25 89° E 22:23:08 52° S
Cosmos 2366 rocket 4.2 22:16:31 10° N 22:22:37 60° ENE 22:24:07 47° SE
USA 306 3.6 22:19:52 10° WNW 22:23:05 45° W 22:23:05 45° W
Cosmos 1937 Rocket 3.6 22:24:06 56° ESE 22:24:06 56° ESE 22:29:08 10° NNE
Cosmos 1818 4.1 22:20:35 10° NNW 22:25:59 54° NE 22:27:40 39° E
Cosmos 2082 Rocket 2.7 22:22:11 10° NW 22:27:32 46° WSW 22:28:19 43° SW
Cosmos 967 Rocket 4.5 22:27:43 54° SE 22:28:26 57° ESE 22:34:34 10° NE
CZ-4C R/B 3.9 22:27:45 10° NW 22:34:18 34° WSW 22:36:28 29° SW
Gbstr 26 Del rocket 4.2 22:28:09 10° WNW 22:35:28 70° NNE 22:40:00 19° E
ERBS 4.2 22:34:03 10° NW 22:36:55 26° NNE 22:37:05 26° NNE
Cosmos 858 Rocket 4.4 22:37:14 69° SE 22:37:25 70° ESE 22:42:37 10° NNE
Cosmos 2218 Rocket 3.9 22:34:21 10° N 22:40:40 83° E 22:42:06 57° SSE
Meteor 1-19 Rocket 4.0 22:40:49 68° SE 22:41:21 75° E 22:46:45 10° NNE
Terra 4.0 22:41:15 13° WSW 22:42:29 15° W 22:45:06 10° NW
Okean 1 3.7 22:46:34 61° NNW 22:46:34 61° NNW 22:50:02 10° N
Cosmos 489 Rocket 4.4 22:41:39 10° NNW 22:47:55 79° ENE 22:49:22 55° SE
USA 307 4.4 22:45:18 10° WNW 22:47:31 26° W 22:47:31 26° W
Cosmos 1340 Rocket 4.2 22:46:25 10° NNW 22:49:40 31° W 22:49:40 31° W
Cosmos 1461 4.3 22:53:28 32° E 22:53:28 32° E 22:56:30 10° NE
Cosmos 2278 Rocket 4.0 22:48:25 10° WSW 22:53:11 27° NW 22:58:00 10° N
Spot 4 4.3 22:53:27 47° WSW 22:53:35 47° W 22:58:18 10° NNW
Cosmos 1862 Rocket 3.7 22:57:00 66° NW 22:57:00 66° NW 23:01:04 10° N
Cosmos 1703 Rocket 4.4 22:57:18 41° ENE 22:57:18 41° ENE 23:00:55 10° NNE
Cosmos 1898 Rocket 3.9 22:57:39 46° WSW 22:58:52 58° WNW 23:04:09 10° NNE
Nadezhda 3 Rocket 4.5 23:02:11 42° ESE 23:03:21 47° E 23:09:17 10° NNE
Cosmos 2369 Rocket 2.4 23:03:27 51° ESE 23:03:33 51° ESE 23:09:00 10° NE
COBE Rocket 3.8 23:07:04 77° SW 23:07:18 80° WSW 23:12:27 10° NNW
RESURS DK-1 3.7 23:05:31 10° NNW 23:09:18 32° NE 23:09:53 31° ENE
Meteor 2-9 Rocket 4.4 23:04:08 10° NNW 23:09:51 59° W 23:10:35 55° SW
SL-8 Rocket 4.4 23:04:06 10° NNW 23:10:12 52° W 23:11:34 45° SW
Cosmos 1943 Rocket 2.2 23:11:55 61° SW 23:12:54 78° WNW 23:18:33 10° NNE
Cosmos 1975 3.6 23:09:05 10° NNW 23:12:12 47° NW 23:12:12 47° NW
Cosmos 2084 Rocket 3.9 23:09:53 10° NW 23:13:20 56° NW 23:13:20 56° NW
ALOS 2 3.3 23:16:05 44° WNW 23:16:05 44° WNW 23:19:51 10° NNW
SL-08 R/B 4.4 23:12:09 10° N 23:18:22 89° W 23:19:37 61° S
Cosmos 1867 4.4 23:18:57 37° ESE 23:18:57 37° ESE 23:23:28 10° NE
PSLV R/B 4.4 23:14:42 10° NNE 23:18:26 41° E 23:18:26 41° E
Cosmos 1607 4.4 23:19:25 43° SE 23:19:51 44° ESE 23:25:56 10° NE
DNEPR-1 R/B 4.1 23:19:56 60° WSW 23:20:56 79° NW 23:25:55 10° NE
Cosmos 44 4.0 23:16:03 10° NW 23:20:48 46° WSW 23:20:48 46° WSW
Meteor 2-4 Rocket 3.6 23:20:31 67° SSW 23:21:21 88° WNW 23:27:03 10° N
Cosmos 2263 4.4 23:22:38 53° ESE 23:22:58 53° ESE 23:28:36 10° NE
Okean 3 4.3 23:28:08 43° ENE 23:28:08 43° ENE 23:31:44 10° NNE
EO 1 Del DPAF 4.5 23:25:03 10° NNE 23:27:38 35° NE 23:27:38 35° NE
Okean 1-7 3.2 23:30:15 69° N 23:30:15 69° N 23:34:03 10° N
ATLAS CENTAUR R/B 3.6 23:32:11 15° ENE 23:32:11 15° ENE 23:33:09 10° ENE
Cosmos 372 Rocket 3.9 23:30:36 67° WSW 23:31:03 71° WNW 23:36:10 10° NNE
Helios 1A 4.4 23:31:38 28° E 23:32:12 30° ENE 23:35:50 10° N
Sich 1 Rocket 4.3 23:30:52 10° N 23:35:18 45° ENE 23:35:34 45° E
Cosmos 1125 Rocket 4.0 23:35:51 46° ESE 23:35:58 46° ESE 23:40:56 10° NNE
SeaSat 1 2.3 23:33:06 10° NNE 23:38:04 87° ESE 23:38:19 81° S
Cosmos 494 Rocket 4.2 23:34:10 10° NNW 23:39:22 65° ENE 23:40:14 55° ESE
Cosmos 1656 Rocket 3.6 23:39:04 60° SE 23:39:22 61° ESE 23:44:49 10° NNE
Cosmos 2242 Rocket 3.8 23:40:22 62° WNW 23:40:22 62° WNW 23:44:34 10° N
Cosmos 2239 Rocket 4.4 23:37:06 10° N 23:43:26 88° E 23:44:52 57° S
USA 215 3.2 23:42:20 52° S 23:43:45 65° SW 23:50:16 10° WNW
Cosmos 1833 4.2 23:40:28 10° NNW 23:46:15 80° ENE 23:47:33 55° SE
ATLAS 2AS CENTAUR R/B 3.6 23:41:31 10° NW 23:47:42 31° WSW 23:47:56 31° WSW
CZ-2D R/B 3.9 23:48:26 10° NE 23:52:20 20° E 23:53:55 18° ESE
